Regional Weather Roundup
Issued by NWS Melbourne, FL

Current Version | Previous Version | Text Only | Print | Product List | Glossary On
Versions: 1 2 3 4 5 6 7 8 9 10 11 12 13 14 15 16 17 18 19 20 21 22 23 24 25 26 27 28 29 30 31 32 33 34 35 36 37 38 39 40 41 42 43 44 45 46 47 48 49 50
000
ASUS42 KMLB 261511
RWRMLB
HOURLY WEATHER ROUNDUP AROUND FLORIDA
NATIONAL WEATHER SERVICE OFFICE MELBOURNE FL
1100 AM EDT SUN MAY 26 2019

CITY           SKY/WX    TMP DP  RH WIND       PRES   REMARKS
MELBOURNE      FAIR      84  72  67 E9        30.17S
FORT PIERCE    FAIR      84  70  62 E10       30.15F
ORLANDO INTL   FAIR      84  70  62 CALM      30.17F
DAYTONA BEACH  FAIR      84  72  67 VRB3      30.17F
VERO BEACH     FAIR      83  71  67 E8        30.16F
$$
...ELSEWHERE ACROSS CENTRAL FLORIDA...

CITY           SKY/WX    TMP DP  RH WIND       PRES   REMARKS
PATRICK AFB    FAIR      82  74  75 E6        30.18R
CAPE CANAVERAL FAIR      83  62  48 E6        30.17R
TITUSVILLE     MOSUNNY   86  72  62 E3        30.18S
ORLANDO EXEC   FAIR      85  69  58 VRB3      30.17F
LEESBURG       FAIR      83  71  67 VRB3      30.18F
SANFORD        FAIR      84  71  65 S6        30.17F
DELAND         FAIR      86  70  58 SE3       30.17S
NEW SMYRNA BCH SUNNY     86  73  66 SE7       30.19S
ORMOND BEACH   SUNNY     82  72  69 CALM      30.18S
WINTER HAVEN   FAIR      84  71  65 E9        30.18S
KISSIMMEE      FAIR      83  73  72 E7        30.18F
OKEECHOBEE     FAIR      82  70  65 E5        30.15S
TAMPA          FAIR      83  70  64 S5        30.17S
$$
...NORTHERN FLORIDA...

CITY           SKY/WX    TMP DP  RH WIND       PRES   REMARKS
PALM COAST     SUNNY     84  70  61 SW6       30.18S
ST AUGUSTINE   FAIR      85  70  60 SW7       30.19S
OCALA          FAIR      86  69  56 VRB5      30.18F
GAINESVILLE    FAIR      88  67  49 SW5       30.20F
JACKSONVILLE   FAIR      87  66  49 W9        30.16F
TALLAHASSEE    FAIR      88  74  63 S9        30.16S
$$
...ALONG THE SOUTHEAST COAST TO THE KEYS...

CITY           SKY/WX    TMP DP  RH WIND       PRES   REMARKS
STUART         MOSUNNY   84  70  61 E12       30.16F
WEST PALM BCH  PTSUNNY   85  70  60 E14       30.15S
MIAMI          PTSUNNY   85  67  54 SE20      30.13S
KEY WEST       FAIR      83  71  67 E14G23    30.10R
$$
...MARINE REPORTS...

STATION/POSITION TIME  TEMP    WIND        PRES    WAVE   SWELL
                       AIR SEA DIR/SP/G            HT/PER HT/PER
                 (UTC) (F)     (DEG/KT/KT) (MB)    (FT/S) (FT/S)
ST AUGUSTINE FP  1500   84 80  130/  3/  7 1022.2F
20NM E CAPE CANA 1450   80     100/  4/  4 1022.5R   2/ 8   2/ 8
TRIDENT PIER     1448   82 82  100/  5/  7 1023.3R
SEBASTIAN INLET  1445   78 81  100/  7     1022.0S
4NM E PORT CANAV 1500      81                N/A     2/ 4
6NM NE FPR INLET 1500      78                N/A     3/ 4
SETTLEMENT PT GB 1500   79      80/  8/  9 1021.3R
$$



USA.gov is the U.S. government's official web portal to all federal, state and local government web resources and services.